DQA118 VRMO-VRMG

Flight info

Callsign DQA118
Flight time 0h 22m
Altitude 16000
Route UXABI DCT LEBAM DCT MG721
Aircraft DH8D/M-SDE2E3FGRY/H

Departure

Time 2026-04-21 16:52
Airport Kooddoo Airport (VRMO)

Arrival

Time 2026-04-21 17:14
Airport Gan International Airport (VRMG)
Time Latitude Longitude Altitude Speed Heading
2026-04-21 16:33 0.73348 73.43347 38 ft 0 kts 359°
2026-04-21 16:49 0.73349 73.43347 38 ft 0 kts 359°
2026-04-21 16:49 0.73357 73.43347 38 ft 0 kts 360°
2026-04-21 16:49 0.73375 73.43383 38 ft 15 kts 89°
2026-04-21 16:49 0.73463 73.43411 38 ft 22 kts 358°
2026-04-21 16:50 0.73684 73.43402 34 ft 38 kts 358°
2026-04-21 16:50 0.73924 73.43392 28 ft 31 kts 356°
2026-04-21 16:50 0.74064 73.43387 23 ft 11 kts 359°
2026-04-21 16:50 0.74116 73.43375 21 ft 7 kts 349°
2026-04-21 16:51 0.74131 73.43385 20 ft 2 kts 153°
2026-04-21 16:51 0.74126 73.43385 21 ft 0 kts 178°
2026-04-21 16:51 0.74051 73.43387 23 ft 43 kts 178°
2026-04-21 16:51 0.73434 73.43412 38 ft 126 kts 177°
2026-04-21 16:52 0.72411 73.43444 285 ft 150 kts 181°
2026-04-21 16:52 0.71310 73.43431 684 ft 168 kts 183°
2026-04-21 16:52 0.70073 73.43399 1153 ft 184 kts 183°
2026-04-21 16:52 0.68727 73.43350 1629 ft 200 kts 183°
2026-04-21 16:53 0.67302 73.43325 2133 ft 214 kts 180°
2026-04-21 16:53 0.65750 73.43328 2646 ft 226 kts 180°
2026-04-21 16:53 0.64135 73.43333 3133 ft 238 kts 180°
2026-04-21 16:53 0.62428 73.43337 3593 ft 248 kts 180°
2026-04-21 16:54 0.60685 73.43342 4077 ft 253 kts 180°
2026-04-21 16:54 0.58913 73.43348 4556 ft 255 kts 180°
2026-04-21 16:54 0.57109 73.43351 5037 ft 257 kts 180°
2026-04-21 16:54 0.55320 73.43352 5513 ft 258 kts 180°
2026-04-21 16:55 0.53516 73.43352 5989 ft 260 kts 180°
2026-04-21 16:55 0.51690 73.43352 6471 ft 260 kts 180°
2026-04-21 16:55 0.49848 73.43350 6956 ft 261 kts 180°
2026-04-21 16:55 0.48024 73.43349 7428 ft 261 kts 180°
2026-04-21 16:56 0.46203 73.43347 7900 ft 262 kts 180°
2026-04-21 16:56 0.44372 73.43345 8372 ft 262 kts 180°
2026-04-21 16:56 0.42535 73.43340 8843 ft 262 kts 180°
2026-04-21 16:56 0.40707 73.43337 9315 ft 262 kts 180°
2026-04-21 16:57 0.38880 73.43334 9785 ft 261 kts 180°
2026-04-21 16:57 0.37056 73.43332 10259 ft 261 kts 180°
2026-04-21 16:57 0.35241 73.43329 10730 ft 259 kts 180°
2026-04-21 16:57 0.33419 73.43327 11204 ft 258 kts 180°
2026-04-21 16:58 0.31604 73.43323 11587 ft 261 kts 180°
2026-04-21 16:58 0.29759 73.43321 11907 ft 265 kts 180°
2026-04-21 16:58 0.27886 73.43318 12225 ft 268 kts 180°
2026-04-21 16:58 0.25991 73.43316 12538 ft 271 kts 180°
2026-04-21 16:59 0.24068 73.43314 12852 ft 274 kts 180°
2026-04-21 16:59 0.22138 73.43310 13161 ft 276 kts 180°
2026-04-21 16:59 0.20209 73.43308 13468 ft 277 kts 180°
2026-04-21 16:59 0.18243 73.43305 13779 ft 279 kts 180°
2026-04-21 17:00 0.16292 73.43302 14082 ft 282 kts 180°
2026-04-21 17:00 0.14275 73.43296 14402 ft 291 kts 180°
2026-04-21 17:00 0.12903 73.43293 14595 ft 297 kts 180°
2026-04-21 17:00 0.09978 73.43288 14527 ft 324 kts 180°
2026-04-21 17:01 0.07623 73.43283 14327 ft 344 kts 180°
2026-04-21 17:01 0.05182 73.43278 14116 ft 356 kts 180°
2026-04-21 17:01 0.02679 73.43277 14000 ft 347 kts 179°
2026-04-21 17:01 0.00277 73.43276 13977 ft 342 kts 179°
2026-04-21 17:02 -0.02080 73.43062 13938 ft 337 kts 195°
2026-04-21 17:02 -0.04141 73.41958 13998 ft 335 kts 216°
2026-04-21 17:02 -0.06035 73.40537 13984 ft 339 kts 217°
2026-04-21 17:02 -0.07901 73.39112 13976 ft 341 kts 217°
2026-04-21 17:03 -0.09821 73.37640 13973 ft 343 kts 217°
2026-04-21 17:03 -0.11725 73.36181 13972 ft 344 kts 217°
2026-04-21 17:03 -0.13635 73.34715 13975 ft 346 kts 217°
2026-04-21 17:03 -0.15555 73.33242 13974 ft 347 kts 217°
2026-04-21 17:04 -0.17495 73.31753 13974 ft 348 kts 217°
2026-04-21 17:04 -0.19427 73.30270 13975 ft 349 kts 217°
2026-04-21 17:04 -0.21344 73.28799 13974 ft 350 kts 217°
2026-04-21 17:04 -0.23287 73.27307 13972 ft 350 kts 217°
2026-04-21 17:05 -0.25225 73.25819 13972 ft 351 kts 217°
2026-04-21 17:05 -0.27165 73.24329 13975 ft 351 kts 217°
2026-04-21 17:05 -0.29134 73.22818 13975 ft 351 kts 217°
2026-04-21 17:05 -0.31050 73.21347 13974 ft 351 kts 217°
2026-04-21 17:06 -0.32991 73.19858 13788 ft 346 kts 217°
2026-04-21 17:06 -0.34891 73.18403 13310 ft 344 kts 217°
2026-04-21 17:06 -0.36810 73.16932 12703 ft 344 kts 217°
2026-04-21 17:06 -0.38699 73.15484 12068 ft 344 kts 218°
2026-04-21 17:07 -0.39956 73.14520 11638 ft 342 kts 218°
2026-04-21 17:07 -0.42445 73.12614 10776 ft 331 kts 218°
2026-04-21 17:07 -0.44254 73.11230 10154 ft 323 kts 218°
2026-04-21 17:07 -0.46013 73.09882 9548 ft 316 kts 218°
2026-04-21 17:08 -0.47734 73.08563 8951 ft 309 kts 218°
2026-04-21 17:08 -0.49441 73.07248 8362 ft 303 kts 219°
2026-04-21 17:08 -0.51061 73.05993 7783 ft 284 kts 218°
2026-04-21 17:08 -0.52573 73.04826 7260 ft 264 kts 219°
2026-04-21 17:09 -0.55437 73.02611 6284 ft 259 kts 218°
2026-04-21 17:09 -0.56876 73.01517 5789 ft 257 kts 218°
2026-04-21 17:09 -0.58339 73.00488 5268 ft 256 kts 208°
2026-04-21 17:10 -0.60036 73.00012 4810 ft 252 kts 189°
2026-04-21 17:10 -0.61766 72.99755 4322 ft 247 kts 189°
2026-04-21 17:10 -0.63475 72.99506 3850 ft 245 kts 189°
2026-04-21 17:10 -0.65177 72.99536 3202 ft 252 kts 164°
2026-04-21 17:11 -0.66552 73.00507 2714 ft 234 kts 124°
2026-04-21 17:11 -0.67076 73.01960 2384 ft 208 kts 101°
2026-04-21 17:11 -0.67325 73.03307 2093 ft 186 kts 100°
2026-04-21 17:11 -0.67531 73.04489 1870 ft 162 kts 99°
2026-04-21 17:12 -0.67709 73.05536 1657 ft 142 kts 99°
2026-04-21 17:12 -0.67880 73.06498 1487 ft 144 kts 100°
2026-04-21 17:12 -0.68064 73.07506 1326 ft 148 kts 99°
2026-04-21 17:12 -0.68236 73.08527 1107 ft 145 kts 99°
2026-04-21 17:13 -0.68390 73.09507 811 ft 142 kts 99°
2026-04-21 17:13 -0.68539 73.10467 632 ft 140 kts 99°
2026-04-21 17:13 -0.68685 73.11432 456 ft 141 kts 99°
2026-04-21 17:13 -0.68832 73.12419 306 ft 142 kts 99°
2026-04-21 17:14 -0.68986 73.13399 122 ft 143 kts 98°
2026-04-21 17:14 -0.69130 73.14349 12 ft 115 kts 98°
2026-04-21 17:14 -0.69216 73.14894 19 ft 55 kts 99°
2026-04-21 17:14 -0.69269 73.15228 19 ft 43 kts 98°
2026-04-21 17:15 -0.69307 73.15487 16 ft 25 kts 97°
2026-04-21 17:15 -0.69248 73.15570 16 ft 14 kts 10°
2026-04-21 17:15 -0.69155 73.15582 16 ft 11 kts 342°
2026-04-21 17:15 -0.69128 73.15523 16 ft 7 kts 289°
2026-04-21 17:16 -0.69089 73.15514 16 ft 6 kts
2026-04-21 17:16 -0.69063 73.15518 16 ft 0 kts